Quillayute, WA
on Wednesday, November 14, 2012

Wednesday
Previous Day Next Day
Daily Summary
 ActualAverageRecord
Temperature
Mean Temperature °F 44°F  
Max Temperature 53°F 51°F 61°F (1979)
Min Temperature 34°F 39°F 21°F (1978)
Degree Days
Heating Degree Days 21 21  
Month to date heating degree days 271  
Since 1 July heating degree days 1361  
Cooling Degree Days 0 0  
Month to date cooling degree days 0  
Year to date cooling degree days 19  
Moisture
Dew Point 43°F   
Average Humidity 98    
Maximum Humidity 100    
Minimum Humidity 77    
Precipitation
Precipitation T in 0.53 in 2.85 in (1998)
Month to date precipitation 7.03  
Year to date precipitation 78.06  
Wind
Wind Speed 1 mph   
Max Wind Speed 7 mph   
Max Gust Speed 9 mph   
Visibility 2 miles   
Events Fog , Rain   

Key: T is trace of precipitation, MM is missing value
Source: NWS Daily Summary
Time(PST)TemperatureDew PointHumidity Pressure Visibility Wind DirectionWind SpeedGust SpeedPrecipitationEvents Conditions
12:09 AM 48.2°F 48.2°F 100% 30.18 in 3.0 miles Calm Calm - 0.00 in Rain Light Rain
12:53 AM 48.0°F 48.0°F 100% 30.19 in 4.0 miles Calm Calm - 0.00 in   Overcast
1:30 AM 48.2°F 46.4°F 93% 30.20 in 6.0 miles Calm Calm - 0.00 in   Overcast
1:53 AM 46.9°F 46.9°F 100% 30.20 in 1.2 miles Calm Calm - 0.00 in   Mostly Cloudy
1:57 AM 46.4°F 46.4°F 100% 30.20 in 0.5 miles Calm Calm - N/A Fog Fog
2:01 AM 46.4°F 44.6°F 93% 30.20 in 0.2 miles Calm Calm - N/A Fog Fog
2:11 AM 44.6°F 44.6°F 100% 30.20 in 0.2 miles Calm Calm - N/A Fog Fog
2:26 AM 44.6°F 44.6°F 100% 30.21 in 0.2 miles Calm Calm - N/A Fog Fog
2:53 AM 43.0°F 43.0°F 100% 30.22 in 0.2 miles Calm Calm - N/A Fog Fog
3:53 AM 42.1°F 42.1°F 100% 30.22 in 0.2 miles Calm Calm - N/A Fog Fog
4:42 AM 41.0°F 41.0°F 100% 30.22 in 0.2 miles Calm Calm - N/A Fog Fog
4:53 AM 42.1°F 42.1°F 100% 30.23 in 0.2 miles Calm Calm - N/A Fog Fog
5:41 AM 42.8°F 42.8°F 100% 30.24 in 0.2 miles Calm Calm - N/A Fog Fog
5:53 AM 42.1°F 42.1°F 100% 30.25 in 0.2 miles Calm Calm - N/A Fog Fog
6:53 AM 42.1°F 42.1°F 100% 30.26 in 0.2 miles Calm Calm - N/A Fog Fog
7:53 AM 43.0°F 43.0°F 100% 30.28 in 0.2 miles Calm Calm - N/A Fog Fog
8:53 AM 44.1°F 44.1°F 100% 30.29 in 0.2 miles East 3.5 mph - N/A Fog Fog
9:53 AM 45.0°F 45.0°F 100% 30.30 in 0.2 miles Calm Calm - N/A Fog Fog
10:53 AM 45.0°F 45.0°F 100% 30.31 in 0.2 miles Calm Calm - N/A Fog Fog
11:17 AM 46.4°F 46.4°F 100% 30.31 in 1.0 miles Calm Calm - N/A   Overcast
11:22 AM 46.4°F 46.4°F 100% 30.31 in 2.0 miles Calm Calm - N/A   Overcast
11:33 AM 48.2°F 46.4°F 93% 30.31 in 5.0 miles Calm Calm - N/A   Overcast
11:53 AM 48.0°F 48.0°F 100% 30.31 in 6.0 miles Calm Calm - N/A   Mostly Cloudy
12:14 PM 50.0°F 48.2°F 94% 30.30 in 6.0 miles Calm Calm - N/A   Partly Cloudy
12:53 PM 53.1°F 46.0°F 77% 30.30 in 6.0 miles Calm Calm - N/A   Haze
1:53 PM 53.1°F 46.9°F 80% 30.30 in 6.0 miles Variable 3.5 mph - N/A   Haze
2:02 PM 51.8°F 46.4°F 82% 30.30 in 6.0 miles NNE 3.5 mph - N/A   Haze
2:21 PM 51.8°F 46.4°F 82% 30.30 in 6.0 miles Calm Calm - N/A   Mostly Cloudy
2:53 PM 50.0°F 46.9°F 89% 30.30 in 6.0 miles Calm Calm - N/A   Mostly Cloudy
3:53 PM 50.0°F 46.0°F 86% 30.30 in 6.0 miles West 4.6 mph - N/A   Clear
4:53 PM 45.0°F 45.0°F 100% 30.30 in 4.0 miles NNW 3.5 mph - N/A   Clear
5:00 PM 44.6°F 44.6°F 100% 30.30 in 1.8 miles North 3.5 mph - N/A   Clear
5:05 PM 44.6°F 44.6°F 100% 30.30 in 3.0 miles Calm Calm - N/A   Clear
5:53 PM 45.0°F 45.0°F 100% 30.30 in 5.0 miles NNE 5.8 mph - N/A   Clear
6:53 PM 43.0°F 43.0°F 100% 30.30 in 5.0 miles Calm Calm - N/A   Clear
7:07 PM 42.8°F 42.8°F 100% 30.30 in 1.8 miles NNE 3.5 mph - N/A   Clear
7:10 PM 42.8°F 42.8°F 100% 30.30 in 0.8 miles North 3.5 mph - N/A   Clear
7:23 PM 39.2°F 39.2°F 100% 30.29 in 0.2 miles NNE 4.6 mph - N/A Fog Fog
7:33 PM 41.0°F 41.0°F 100% 30.29 in 0.8 miles North 5.8 mph - N/A   Clear
7:37 PM 41.0°F 41.0°F 100% 30.29 in 1.5 miles North 4.6 mph - N/A   Clear
7:41 PM 42.8°F 42.8°F 100% 30.29 in 3.0 miles NNE 4.6 mph - N/A   Clear
7:53 PM 39.9°F 39.9°F 100% 30.30 in 3.0 miles SE 3.5 mph - N/A   Clear
7:56 PM 39.2°F 39.2°F 100% 30.29 in 1.8 miles Calm Calm - N/A   Clear
8:07 PM 41.0°F 41.0°F 100% 30.30 in 0.8 miles Calm Calm - N/A   Clear
8:12 PM 39.2°F 39.2°F 100% 30.30 in 0.2 miles Calm Calm - N/A Fog Fog
8:31 PM 39.2°F 39.2°F 100% 30.29 in 0.5 miles NNE 3.5 mph - N/A Fog Fog
8:44 PM 39.2°F 39.2°F 100% 30.29 in 0.2 miles Calm Calm - N/A Fog Fog
8:51 PM 39.2°F 39.2°F 100% 30.29 in 1.0 miles Calm Calm - N/A   Mist
8:52 PM 39.9°F 39.9°F 100% 30.30 in 1.2 miles Calm Calm - N/A   Partly Cloudy
8:56 PM 39.2°F 39.2°F 100% 30.29 in 0.8 miles Calm Calm - N/A   Mist
9:05 PM 37.4°F 37.4°F 100% 30.30 in 0.2 miles Calm Calm - N/A Fog Fog
9:13 PM 37.4°F 37.4°F 100% 30.30 in 0.2 miles SE 3.5 mph - N/A Fog Fog
9:53 PM 37.9°F 37.9°F 100% 30.30 in 0.2 miles Calm Calm - N/A Fog Fog
10:53 PM 37.0°F 37.0°F 100% 30.29 in 0.2 miles East 3.5 mph - N/A Fog Fog
11:35 PM 35.6°F 35.6°F 100% 30.27 in 0.5 miles Calm Calm - N/A Fog Fog
11:48 PM 35.6°F 35.6°F 100% 30.27 in 0.2 miles Calm Calm - N/A Fog Fog
11:53 PM 35.1°F 35.1°F 100% 30.27 in 0.2 miles Calm Calm - N/A Fog Fog
Moon Phase
Nov. 14 Nov. 20 Nov. 28 Dec. 06 Dec. 13
Sunrise:07:23 AM (PST) Moon Rise:08:24 AM (PST)11/14
Sunset:04:41 PM (PST) Moon Set:05:30 PM (PST)11/14

Copyright © 2014 The Weather Underground, Inc.